If you wish to contribute or participate in the discussions about articles you are invited to join SKYbrary as a registered user

 Actions

Cairns Airport

From SKYbrary Wiki

YBCS
Airport
ICAO: YBCS – IATA: CNS
Summary
Name Cairns Airport
Region Asia and Pacific
Territory Australia AU.gif
Location Cairns, Queensland
Serving Cairns
Elevation 3.048 m
10 ft
10 ft3.048 m
Coordinates 16° 52' 35.53" S, 145° 45' 14.54" E
Runways
Designator Length Width Surface ROPS
12/30 925 m3,034.777 ft
18 m59.055 ft
ASP yes/yes
15/33 3197 m10,488.845 ft
45 m147.638 ft
ASP yes/yes


METAR
Observation YBCS 231030Z AUTO 16007KT 9999 // SCT027 23/18 Q1020 RF00.0/000.0 FM1100 17006KT 9999 SCT025
Station Cairns Airport
Date/Time 23 September 2019 10:30:00
Wind direction 160°
Wind speed 07 kts
Lowest cloud amount scattered clouds
Temperature 23°C
Dew point 18°C
Humidity 73%
QNH 1020 hPa
Weather condition n/a

Cairns Airport

ICAO: YBCS IATA: CNS

Description

Cairns Airport is an international airport in Cairns, Queensland, Australia.

Climatology

Humid “subtropical” climate (Köppen climate classification Cfa) - characterized by hot, humid summers and cool winters. Significant amounts of precipitation occur in all seasons in most areas. Most summer rainfall occurs during thunderstorms and occasional tropical storms.

Maps

Terrain

Loading map...

Airport Layout

Loading map...


Accidents & Serious Incidents at or in vicinity of YBCS

None on SKYbrary